Últimos sismos

UTC
MagnitudMag. Fecha y hora Epicentro localización: latitud, longitud loc.: lat., long. ProfundidadProf.
4.3 2018-02-23    08:31:43 121 km al SUROESTE de TONALA, CHIS: 15.14°, -94.31° 28 km
3.5 2018-02-23    07:30:03 12 km al SUR de PINOTEPA NACIONAL, OAX: 16.24°, -98.05° 6 km
2.7 2018-02-23    07:22:12 27 km al NORESTE de PINOTEPA NACIONAL, OAX: 16.41°, -97.81° 16 km
2.3 2018-02-23    07:21:58 12 km al NORESTE de PINOTEPA NACIONAL, OAX: 16.40°, -97.96° 16 km
3.1 2018-02-23    07:17:41 24 km al SURESTE de PINOTEPA NACIONAL, OAX: 16.27°, -97.84° 5 km
2.2 2018-02-23    07:14:21 17 km al SUROESTE de PINOTEPA NACIONAL, OAX: 16.23°, -98.17° 12 km
3.6 2018-02-23    06:54:40 36 km al NOROESTE de RIO GRANDE, OAX: 16.13°, -97.75° 10 km
3.8 2018-02-23    06:54:39 38 km al OESTE de RIO GRANDE, OAX: 16.09°, -97.78° 8 km
2.9 2018-02-23    06:52:17 15 km al ESTE de PINOTEPA NACIONAL, OAX: 16.36°, -97.91° 5 km
3.8 2018-02-23    06:45:28 89 km al SUROESTE de PIJIJIAPAN, CHIS: 15.11°, -93.79° 21 km
3.5 2018-02-23    06:25:34 44 km al SURESTE de SALINA CRUZ, OAX: 15.80°, -95.08° 18 km
3.7 2018-02-23    06:19:03 13 km al NOROESTE de CIHUATLAN, JAL: 19.35°, -104.60° 29 km
3.9 2018-02-23    06:16:48 15 km al SUR de COYUCA DE BENITEZ, GRO: 16.87°, -100.06° 5 km
3.0 2018-02-23    06:16:26 20 km al SURESTE de PINOTEPA NACIONAL, OAX: 16.29°, -97.87° 10 km
3.3 2018-02-23    06:14:28 17 km al OESTE de PINOTEPA NACIONAL, OAX: 16.32°, -98.21° 20 km
2.4 2018-02-23    06:12:05 17 km al SUROESTE de PINOTEPA NACIONAL, OAX: 16.20°, -98.13° 10 km
3.2 2018-02-23    06:09:56 14 km al ESTE de PINOTEPA NACIONAL, OAX: 16.32°, -97.92° 10 km
3.6 2018-02-23    06:07:28 44 km al ESTE de SAN MARCOS, GRO: 16.77°, -98.98° 30 km
3.3 2018-02-23    06:05:28 10 km al SUROESTE de PINOTEPA NACIONAL, OAX: 16.25°, -98.08° 9 km
2.7 2018-02-23    06:02:34 12 km al SUR de PINOTEPA NACIONAL, OAX: 16.23°, -98.08° 10 km
3.2 2018-02-23    05:56:58 41 km al SUR de PINOTEPA NACIONAL, OAX: 15.97°, -98.10° 10 km
2.6 2018-02-23    05:52:32 17 km al SUROESTE de PINOTEPA NACIONAL, OAX: 16.20°, -98.10° 10 km
3.5 2018-02-23    05:50:58 37 km al SUR de PINOTEPA NACIONAL, OAX: 16.02°, -98.13° 10 km
3.1 2018-02-23    05:48:19 16 km al SUROESTE de PINOTEPA NACIONAL, OAX: 16.21°, -98.11° 5 km
4.1 2018-02-23    05:43:05 12 km al NORTE de ZIHUATANEJO, GRO: 17.75°, -101.53° 50 km
3.3 2018-02-23    05:38:24 56 km al NOROESTE de MATIAS ROMERO, OAX: 17.21°, -95.43° 144 km
3.1 2018-02-23    05:30:07 21 km al NORESTE de PINOTEPA NACIONAL, OAX: 16.39°, -97.86° 11 km
3.7 2018-02-23    05:25:16 7 km al SUROESTE de PINOTEPA NACIONAL, OAX: 16.30°, -98.10° 11 km
3.8 2018-02-23    05:17:25 20 km al ESTE de SALINA CRUZ, OAX: 16.18°, -95.01° 10 km
3.8 2018-02-23    05:14:56 19 km al NORESTE de CD IXTEPEC, OAX: 16.67°, -94.96° 18 km
3.7 2018-02-23    05:07:20 13 km al ESTE de PINOTEPA NACIONAL, OAX: 16.31°, -97.93° 10 km
2.6 2018-02-23    04:55:23 16 km al SURESTE de PINOTEPA NACIONAL, OAX: 16.25°, -97.93° 16 km
2.3 2018-02-23    04:55:03 17 km al SUROESTE de PINOTEPA NACIONAL, OAX: 16.21°, -98.14° 12 km
2.2 2018-02-23    04:51:25 21 km al SUROESTE de PINOTEPA NACIONAL, OAX: 16.25°, -98.22° 10 km
3.5 2018-02-23    04:46:26 24 km al SUR de MANZANILLO, COL: 18.84°, -104.30° 6 km
3.0 2018-02-23    04:45:40 12 km al SUROESTE de PINOTEPA NACIONAL, OAX: 16.25°, -98.12° 15 km
3.4 2018-02-23    04:27:19 11 km al SUROESTE de PINOTEPA NACIONAL, OAX: 16.27°, -98.13° 13 km
3.5 2018-02-23    04:22:37 13 km al NORESTE de PINOTEPA NACIONAL, OAX: 16.45°, -98.01° 11 km
3.8 2018-02-23    04:19:18 141 km al SUROESTE de TONALA, CHIS: 14.99°, -94.42° 16 km
3.7 2018-02-23    04:10:30 10 km al SURESTE de PINOTEPA NACIONAL, OAX: 16.26°, -98.01° 2 km
3.7 2018-02-23    03:40:18 12 km al NORTE de S BLAS ATEMPA, OAX: 16.43°, -95.21° 58 km
3.3 2018-02-23    03:38:55 39 km al ESTE de PINOTEPA NACIONAL, OAX: 16.30°, -97.69° 36 km
3.7 2018-02-23    03:31:20 36 km al NOROESTE de TEHUANTEPEC, OAX: 16.54°, -95.49° 28 km
3.0 2018-02-23    03:22:37 35 km al SURESTE de PINOTEPA NACIONAL, OAX: 16.05°, -97.94° 2 km
2.9 2018-02-23    03:11:28 10 km al NORESTE de PINOTEPA NACIONAL, OAX: 16.43°, -98.02° 26 km
3.2 2018-02-23    02:57:46 12 km al OESTE de PINOTEPA NACIONAL, OAX: 16.33°, -98.17° 22 km
3.4 2018-02-23    02:41:46 9 km al SURESTE de PINOTEPA NACIONAL, OAX: 16.32°, -97.97° 31 km
3.3 2018-02-23    02:38:41 22 km al ESTE de PINOTEPA NACIONAL, OAX: 16.30°, -97.85° 28 km
3.1 2018-02-23    02:27:29 36 km al SURESTE de TECATE, BC: 32.31°, -116.41° 5 km
3.6 2018-02-23    02:20:03 53 km al SUR de SALINA CRUZ, OAX: 15.70°, -95.20° 14 km
3.0 2018-02-23    01:42:35 6 km al NORTE de PINOTEPA NACIONAL, OAX: 16.39°, -98.06° 30 km
2.9 2018-02-23    01:42:07 12 km al NORESTE de PINOTEPA NACIONAL, OAX: 16.45°, -98.02° 30 km
3.5 2018-02-23    01:37:53 19 km al SURESTE de PINOTEPA NACIONAL, OAX: 16.25°, -97.90° 29 km
3.6 2018-02-23    01:34:59 9 km al SURESTE de PINOTEPA NACIONAL, OAX: 16.27°, -98.01° 7 km
3.1 2018-02-23    01:30:51 6 km al SUROESTE de PINOTEPA NACIONAL, OAX: 16.31°, -98.10° 27 km
3.0 2018-02-23    01:19:45 17 km al NORESTE de PINOTEPA NACIONAL, OAX: 16.47°, -97.97° 4 km
3.8 2018-02-23    01:15:29 99 km al SURESTE de SALINA CRUZ, OAX: 15.43°, -94.69° 17 km
3.3 2018-02-23    01:14:46 24 km al SUROESTE de PINOTEPA NACIONAL, OAX: 16.22°, -98.23° 11 km
2.7 2018-02-23    01:10:27 18 km al SUROESTE de PINOTEPA NACIONAL, OAX: 16.21°, -98.15° 10 km
3.2 2018-02-23    01:05:41 28 km al ESTE de PINOTEPA NACIONAL, OAX: 16.28°, -97.80° 2 km
2.7 2018-02-23    00:58:55 16 km al SUROESTE de PINOTEPA NACIONAL, OAX: 16.23°, -98.14° 10 km
2.9 2018-02-23    00:57:37 40 km al SUR de PINOTEPA NACIONAL, OAX: 15.99°, -97.97° 10 km
3.5 2018-02-23    00:48:24 39 km al SURESTE de PINOTEPA NACIONAL, OAX: 16.01°, -97.93° 3 km
3.5 2018-02-23    00:47:27 6 km al SUR de PINOTEPA NACIONAL, OAX: 16.29°, -98.06° 10 km
3.1 2018-02-23    00:29:11 7 km al SUROESTE de PINOTEPA NACIONAL, OAX: 16.30°, -98.09° 18 km
3.3 2018-02-23    00:23:32 17 km al ESTE de PINOTEPA NACIONAL, OAX: 16.31°, -97.90° 3 km
3.0 2018-02-23    00:21:05 30 km al NORESTE de PINOTEPA NACIONAL, OAX: 16.59°, -97.92° 16 km
3.4 2018-02-23    00:19:17 9 km al SUROESTE de PINOTEPA NACIONAL, OAX: 16.26°, -98.08° 11 km
2.8 2018-02-23    00:07:25 8 km al SUR de MEXICALI, BC: 32.59°, -115.47° 19 km
3.0 2018-02-22    23:57:57 23 km al SURESTE de PINOTEPA NACIONAL, OAX: 16.22°, -97.88° 17 km
3.4 2018-02-22    23:49:36 27 km al OESTE de COQUIMATLAN, COL: 19.23°, -104.06° 18 km
4.0 2018-02-22    23:48:41 66 km al SUROESTE de RIO GRANDE, OAX: 15.70°, -97.95° 16 km
3.3 2018-02-22    23:45:05 61 km al SUROESTE de RIO GRANDE, OAX: 15.76°, -97.94° 16 km
5.0 2018-02-22    23:43:35 78 km al SUROESTE de RIO GRANDE, OAX: 15.60°, -98.02° 17 km
4.1 2018-02-22    23:39:18 65 km al SUROESTE de RIO GRANDE, OAX: 15.72°, -97.96° 16 km
4.2 2018-02-22    23:37:57 69 km al SUROESTE de RIO GRANDE, OAX: 15.67°, -97.97° 17 km
3.2 2018-02-22    23:31:03 8 km al ESTE de RIO GRANDE, OAX: 16.00°, -97.36° 27 km
2.9 2018-02-22    23:30:01 8 km al SUROESTE de PINOTEPA NACIONAL, OAX: 16.32°, -98.13° 23 km
3.5 2018-02-22    23:23:37 22 km al ESTE de SALINA CRUZ, OAX: 16.15°, -94.99° 16 km
3.3 2018-02-22    23:22:32 8 km al SUR de PINOTEPA NACIONAL, OAX: 16.27°, -98.04° 10 km
3.0 2018-02-22    23:20:15 10 km al SURESTE de RIO GRANDE, OAX: 15.93°, -97.40° 21 km
3.1 2018-02-22    23:12:25 17 km al SURESTE de PINOTEPA NACIONAL, OAX: 16.21°, -97.97° 16 km
2.2 2018-02-22    23:12:15 13 km al SUROESTE de PINOTEPA NACIONAL, OAX: 16.23°, -98.10° 10 km
3.0 2018-02-22    22:54:23 13 km al SURESTE de PINOTEPA NACIONAL, OAX: 16.27°, -97.96° 18 km
3.7 2018-02-22    22:43:29 45 km al SURESTE de SALINA CRUZ, OAX: 15.79°, -95.06° 16 km
3.0 2018-02-22    22:42:09 24 km al ESTE de PINOTEPA NACIONAL, OAX: 16.38°, -97.83° 8 km
2.9 2018-02-22    22:34:02 15 km al SUROESTE de PINOTEPA NACIONAL, OAX: 16.22°, -98.10° 4 km
2.9 2018-02-22    22:31:50 21 km al SURESTE de PINOTEPA NACIONAL, OAX: 16.25°, -97.88° 16 km
3.7 2018-02-22    22:28:28 13 km al NORTE de S BLAS ATEMPA, OAX: 16.45°, -95.22° 26 km
3.4 2018-02-22    22:10:45 73 km al SUR de COALCOMAN, MICH: 18.14°, -103.33° 14 km
3.0 2018-02-22    22:08:19 12 km al SUROESTE de PINOTEPA NACIONAL, OAX: 16.30°, -98.16° 17 km
3.6 2018-02-22    22:06:31 16 km al NOROESTE de UNION HIDALGO, OAX: 16.62°, -94.87° 31 km
3.0 2018-02-22    22:01:43 6 km al ESTE de PINOTEPA NACIONAL, OAX: 16.34°, -97.99° 27 km
2.9 2018-02-22    21:53:04 8 km al NORESTE de PINOTEPA NACIONAL, OAX: 16.37°, -97.99° 29 km
2.6 2018-02-22    21:49:57 14 km al SUROESTE de PINOTEPA NACIONAL, OAX: 16.30°, -98.17° 20 km
2.2 2018-02-22    21:47:42 31 km al OESTE de PINOTEPA NACIONAL, OAX: 16.36°, -98.34° 10 km
2.4 2018-02-22    21:32:20 13 km al SUROESTE de PINOTEPA NACIONAL, OAX: 16.26°, -98.15° 20 km
3.1 2018-02-22    21:30:34 33 km al SURESTE de PINOTEPA NACIONAL, OAX: 16.13°, -97.84° 28 km
3.7 2018-02-22    21:25:41 12 km al SUROESTE de PINOTEPA NACIONAL, OAX: 16.25°, -98.11° 10 km
3.5 2018-02-22    21:07:17 10 km al SUR de PINOTEPA NACIONAL, OAX: 16.25°, -98.04° 5 km
2.9 2018-02-22    20:57:57 8 km al NORTE de PINOTEPA NACIONAL, OAX: 16.41°, -98.04° 21 km
2.5 2018-02-22    20:55:55 11 km al SUR de PINOTEPA NACIONAL, OAX: 16.24°, -98.03° 10 km
3.5 2018-02-22    20:51:15 47 km al SUROESTE de PINOTEPA NACIONAL, OAX: 15.98°, -98.29° 10 km
3.2 2018-02-22    20:48:32 12 km al SUR de PINOTEPA NACIONAL, OAX: 16.24°, -98.08° 9 km
3.5 2018-02-22    20:37:12 4 km al OESTE de PINOTEPA NACIONAL, OAX: 16.35°, -98.09° 19 km
3.1 2018-02-22    20:29:28 16 km al SUR de PINOTEPA NACIONAL, OAX: 16.20°, -98.05° 6 km
3.2 2018-02-22    20:05:15 18 km al SUROESTE de OMETEPEC, GRO: 16.53°, -98.46° 27 km
3.8 2018-02-22    19:58:21 47 km al SURESTE de SALINA CRUZ, OAX: 15.78°, -95.06° 12 km
3.5 2018-02-22    19:46:44 6 km al SURESTE de PINOTEPA NACIONAL, OAX: 16.29°, -98.03° 10 km
3.5 2018-02-22    19:44:17 7 km al SUR de PINOTEPA NACIONAL, OAX: 16.28°, -98.07° 12 km
3.9 2018-02-22    19:25:41 69 km al SUR de PINOTEPA NACIONAL, OAX: 15.72°, -98.01° 9 km
2.9 2018-02-22    19:16:50 17 km al SUROESTE de PINOTEPA NACIONAL, OAX: 16.21°, -98.13° 10 km
3.6 2018-02-22    19:10:03 66 km al SURESTE de SALINA CRUZ, OAX: 15.63°, -94.97° 14 km
3.6 2018-02-22    19:04:09 7 km al SUR de PINOTEPA NACIONAL, OAX: 16.28°, -98.04° 11 km
3.8 2018-02-22    19:00:49 9 km al SUROESTE de SALINA CRUZ, OAX: 16.10°, -95.23° 50 km
3.6 2018-02-22    18:58:11 26 km al SUR de SALINA CRUZ, OAX: 15.94°, -95.18° 56 km
3.2 2018-02-22    18:55:40 21 km al SURESTE de PINOTEPA NACIONAL, OAX: 16.22°, -97.90° 21 km
3.8 2018-02-22    18:25:09 10 km al SUROESTE de JUCHITAN DE ZARAGOZA, OAX: 16.35°, -95.06° 55 km
3.4 2018-02-22    17:48:12 26 km al SURESTE de PINOTEPA NACIONAL, OAX: 16.25°, -97.83° 2 km
3.6 2018-02-22    17:35:29 29 km al SURESTE de JUCHITAN DE ZARAGOZA, OAX: 16.19°, -94.91° 6 km
3.0 2018-02-22    17:07:04 7 km al SUR de PINOTEPA NACIONAL, OAX: 16.28°, -98.07° 10 km
3.1 2018-02-22    16:58:56 12 km al SUR de PINOTEPA NACIONAL, OAX: 16.24°, -98.07° 5 km
3.2 2018-02-22    16:58:11 22 km al SURESTE de PINOTEPA NACIONAL, OAX: 16.28°, -97.85° 10 km
3.5 2018-02-22    16:49:20 24 km al SUR de PETATLAN, GRO: 17.32°, -101.24° 2 km
3.3 2018-02-22    16:45:03 13 km al SUR de PINOTEPA NACIONAL, OAX: 16.22°, -98.08° 5 km
3.0 2018-02-22    16:36:06 13 km al SUR de PINOTEPA NACIONAL, OAX: 16.23°, -98.07° 10 km
3.0 2018-02-22    16:34:36 13 km al SUR de PINOTEPA NACIONAL, OAX: 16.22°, -98.08° 5 km
3.5 2018-02-22    16:11:39 8 km al SUR de PINOTEPA NACIONAL, OAX: 16.27°, -98.05° 11 km
2.5 2018-02-22    16:07:43 10 km al SURESTE de PINOTEPA NACIONAL, OAX: 16.32°, -97.96° 10 km
3.0 2018-02-22    16:02:25 8 km al SURESTE de PINOTEPA NACIONAL, OAX: 16.29°, -98.01° 5 km
2.4 2018-02-22    15:50:56 18 km al SUROESTE de PINOTEPA NACIONAL, OAX: 16.19°, -98.13° 10 km
3.5 2018-02-22    15:48:26 15 km al SUR de PINOTEPA NACIONAL, OAX: 16.21°, -98.06° 8 km
2.3 2018-02-22    15:36:51 14 km al SUROESTE de PINOTEPA NACIONAL, OAX: 16.23°, -98.12° 10 km
3.8 2018-02-22    15:34:09 69 km al SURESTE de SALINA CRUZ, OAX: 15.65°, -94.85° 16 km
3.2 2018-02-22    15:33:49 10 km al OESTE de ARCELIA, GRO: 18.34°, -100.38° 53 km
3.4 2018-02-22    15:31:13 28 km al SURESTE de PINOTEPA NACIONAL, OAX: 16.27°, -97.80° 20 km
2.7 2018-02-22    15:27:22 83 km al NORESTE de VICENTE GUERRERO, BC: 31.42°, -115.66° 10 km
2.5 2018-02-22    15:18:36 13 km al SUROESTE de PINOTEPA NACIONAL, OAX: 16.23°, -98.09° 10 km
2.7 2018-02-22    15:04:19 19 km al SUROESTE de PINOTEPA NACIONAL, OAX: 16.20°, -98.16° 10 km
3.2 2018-02-22    15:02:19 17 km al ESTE de PINOTEPA NACIONAL, OAX: 16.33°, -97.89° 5 km
3.6 2018-02-22    15:01:28 64 km al SUR de SALINA CRUZ, OAX: 15.62°, -95.05° 14 km
3.4 2018-02-22    14:55:23 4 km al NOROESTE de TECOMAN, COL: 18.93°, -103.91° 5 km
2.5 2018-02-22    14:48:40 19 km al SUROESTE de PINOTEPA NACIONAL, OAX: 16.19°, -98.14° 10 km
3.5 2018-02-22    14:45:11 9 km al SUR de PINOTEPA NACIONAL, OAX: 16.26°, -98.04° 8 km
3.4 2018-02-22    14:38:22 9 km al SUR de PINOTEPA NACIONAL, OAX: 16.26°, -98.06° 7 km
3.4 2018-02-22    14:28:55 9 km al SUR de PINOTEPA NACIONAL, OAX: 16.26°, -98.04° 7 km
3.4 2018-02-22    14:24:06 15 km al SUR de PINOTEPA NACIONAL, OAX: 16.21°, -98.09° 4 km
3.8 2018-02-22    14:23:21 127 km al SURESTE de SALINA CRUZ, OAX: 15.21°, -94.57° 17 km
2.2 2018-02-22    14:22:25 13 km al SUR de PINOTEPA NACIONAL, OAX: 16.22°, -98.06° 10 km
3.2 2018-02-22    14:11:56 20 km al SURESTE de PINOTEPA NACIONAL, OAX: 16.23°, -97.91° 10 km
3.3 2018-02-22    14:07:41 45 km al SUROESTE de COALCOMAN, MICH: 18.54°, -103.50° 42 km
3.2 2018-02-22    14:06:59 21 km al SURESTE de PINOTEPA NACIONAL, OAX: 16.23°, -97.90° 10 km
3.0 2018-02-22    14:03:38 7 km al NOROESTE de PINOTEPA NACIONAL, OAX: 16.38°, -98.10° 27 km
2.9 2018-02-22    13:58:43 17 km al SUROESTE de PINOTEPA NACIONAL, OAX: 16.21°, -98.13° 10 km
2.3 2018-02-22    13:51:19 11 km al SURESTE de PINOTEPA NACIONAL, OAX: 16.25°, -98.02° 10 km
2.7 2018-02-22    13:47:00 9 km al SURESTE de PINOTEPA NACIONAL, OAX: 16.28°, -97.99° 10 km
3.7 2018-02-22    13:40:02 8 km al SUROESTE de UNION HIDALGO, OAX: 16.45°, -94.90° 16 km
3.0 2018-02-22    13:35:07 10 km al SURESTE de PINOTEPA NACIONAL, OAX: 16.25°, -98.02° 5 km
3.3 2018-02-22    13:19:06 19 km al SURESTE de PINOTEPA NACIONAL, OAX: 16.19°, -97.98° 35 km
2.8 2018-02-22    13:17:33 15 km al SURESTE de PINOTEPA NACIONAL, OAX: 16.23°, -97.98° 5 km
3.3 2018-02-22    13:10:47 32 km al SURESTE de PINOTEPA NACIONAL, OAX: 16.12°, -97.87° 29 km
4.0 2018-02-22    12:43:34 53 km al SURESTE de SALINA CRUZ, OAX: 15.73°, -95.03° 16 km
2.6 2018-02-22    12:35:11 12 km al SURESTE de PINOTEPA NACIONAL, OAX: 16.28°, -97.96° 10 km
3.8 2018-02-22    12:24:21 120 km al SUROESTE de PIJIJIAPAN, CHIS: 14.78°, -93.83° 16 km
2.5 2018-02-22    12:11:49 22 km al OESTE de PINOTEPA NACIONAL, OAX: 16.29°, -98.26° 10 km
3.8 2018-02-22    12:10:44 120 km al SURESTE de SALINA CRUZ, OAX: 15.25°, -94.61° 15 km
2.4 2018-02-22    11:59:36 28 km al OESTE de PINOTEPA NACIONAL, OAX: 16.38°, -98.31° 5 km
2.3 2018-02-22    11:52:09 25 km al NORTE de PINOTEPA NACIONAL, OAX: 16.57°, -98.10° 5 km
2.7 2018-02-22    11:51:07 40 km al SUR de CHILPANCINGO, GRO: 17.20°, -99.58° 29 km
3.5 2018-02-22    11:47:57 12 km al SUR de PINOTEPA NACIONAL, OAX: 16.24°, -98.08° 10 km
2.5 2018-02-22    11:46:25 11 km al ESTE de PINOTEPA NACIONAL, OAX: 16.35°, -97.95° 5 km
2.4 2018-02-22    11:45:51 16 km al SUR de PINOTEPA NACIONAL, OAX: 16.20°, -98.06° 5 km
3.4 2018-02-22    11:41:09 6 km al SUROESTE de PINOTEPA NACIONAL, OAX: 16.30°, -98.08° 10 km
2.2 2018-02-22    11:36:01 12 km al ESTE de PINOTEPA NACIONAL, OAX: 16.35°, -97.94° 5 km
3.4 2018-02-22    11:33:20 9 km al SUROESTE de UNION HIDALGO, OAX: 16.45°, -94.91° 16 km
2.9 2018-02-22    11:31:15 19 km al NORESTE de PINOTEPA NACIONAL, OAX: 16.47°, -97.93° 2 km
3.5 2018-02-22    11:30:06 18 km al SUR de PINOTEPA NACIONAL, OAX: 16.18°, -98.09° 6 km
2.3 2018-02-22    11:23:34 12 km al SUR de PINOTEPA NACIONAL, OAX: 16.24°, -98.05° 10 km
2.4 2018-02-22    11:22:36 16 km al SUROESTE de PINOTEPA NACIONAL, OAX: 16.23°, -98.15° 10 km
3.7 2018-02-22    11:21:38 106 km al SUROESTE de TONALA, CHIS: 15.48°, -94.52° 34 km
2.8 2018-02-22    11:04:47 12 km al SUR de PINOTEPA NACIONAL, OAX: 16.23°, -98.07° 10 km
2.5 2018-02-22    11:01:00 14 km al SUROESTE de PINOTEPA NACIONAL, OAX: 16.23°, -98.10° 10 km
3.2 2018-02-22    10:38:11 35 km al SURESTE de PINOTEPA NACIONAL, OAX: 16.10°, -97.84° 19 km
3.2 2018-02-22    10:30:56 14 km al NOROESTE de PINOTEPA NACIONAL, OAX: 16.40°, -98.17° 30 km
3.9 2018-02-22    10:21:25 77 km al SURESTE de SALINA CRUZ, OAX: 15.53°, -94.96° 16 km
2.9 2018-02-22    10:15:03 12 km al SUROESTE de PINOTEPA NACIONAL, OAX: 16.24°, -98.09° 10 km
3.4 2018-02-22    10:02:20 14 km al SUROESTE de PINOTEPA NACIONAL, OAX: 16.23°, -98.10° 6 km
3.5 2018-02-22    09:52:43 11 km al SUROESTE de PINOTEPA NACIONAL, OAX: 16.27°, -98.12° 17 km
3.1 2018-02-22    09:49:40 10 km al SURESTE de PINOTEPA NACIONAL, OAX: 16.26°, -98.01° 11 km
3.3 2018-02-22    09:47:20 39 km al SUR de PINOTEPA NACIONAL, OAX: 16.00°, -97.96° 5 km
2.7 2018-02-22    09:43:38 15 km al SUROESTE de PINOTEPA NACIONAL, OAX: 16.22°, -98.12° 10 km
2.9 2018-02-22    09:24:53 9 km al SURESTE de PINOTEPA NACIONAL, OAX: 16.27°, -98.02° 5 km
3.4 2018-02-22    09:23:25 12 km al NOROESTE de COYUCA DE BENITEZ, GRO: 17.07°, -100.18° 43 km
3.7 2018-02-22    09:15:57 6 km al NORTE de PINOTEPA NACIONAL, OAX: 16.39°, -98.06° 16 km
4.3 2018-02-22    09:03:20 170 km al SURESTE de SAN JOSE DEL CABO, BCS: 22.16°, -108.37° 5 km
2.2 2018-02-22    09:00:35 18 km al SUROESTE de PINOTEPA NACIONAL, OAX: 16.20°, -98.13° 10 km
3.6 2018-02-22    08:58:34 10 km al SUR de PINOTEPA NACIONAL, OAX: 16.25°, -98.04° 6 km
3.0 2018-02-22    08:43:21 8 km al SURESTE de PINOTEPA NACIONAL, OAX: 16.30°, -97.99° 21 km
2.7 2018-02-22    08:27:32 15 km al SUR de PINOTEPA NACIONAL, OAX: 16.21°, -98.05° 10 km
3.0 2018-02-22    08:12:21 13 km al SUR de PINOTEPA NACIONAL, OAX: 16.23°, -98.07° 10 km
3.1 2018-02-22    08:04:08 12 km al SUROESTE de PINOTEPA NACIONAL, OAX: 16.23°, -98.09° 12 km
2.9 2018-02-22    07:50:42 16 km al SURESTE de PINOTEPA NACIONAL, OAX: 16.25°, -97.93° 10 km
3.4 2018-02-22    07:42:55 9 km al SUR de PINOTEPA NACIONAL, OAX: 16.26°, -98.06° 11 km
3.4 2018-02-22    07:38:23 8 km al SURESTE de PINOTEPA NACIONAL, OAX: 16.30°, -98.00° 5 km
3.0 2018-02-22    07:28:35 12 km al SUR de PINOTEPA NACIONAL, OAX: 16.23°, -98.06° 5 km
3.5 2018-02-22    07:26:52 40 km al SURESTE de PINOTEPA NACIONAL, OAX: 16.04°, -97.85° 20 km
2.6 2018-02-22    07:26:04 6 km al NORESTE de PINOTEPA NACIONAL, OAX: 16.37°, -98.00° 40 km
3.9 2018-02-22    07:23:14 10 km al SUROESTE de MATIAS ROMERO, OAX: 16.82°, -95.12° 110 km
3.2 2018-02-22    07:17:38 10 km al SURESTE de PINOTEPA NACIONAL, OAX: 16.29°, -97.97° 5 km
2.8 2018-02-22    07:13:04 17 km al ESTE de PINOTEPA NACIONAL, OAX: 16.38°, -97.90° 5 km
2.5 2018-02-22    07:11:17 10 km al SURESTE de PINOTEPA NACIONAL, OAX: 16.26°, -98.01° 5 km
2.8 2018-02-22    07:05:22 12 km al SUROESTE de PINOTEPA NACIONAL, OAX: 16.28°, -98.14° 22 km
2.3 2018-02-22    07:03:46 22 km al SUROESTE de PINOTEPA NACIONAL, OAX: 16.23°, -98.22° 5 km
3.9 2018-02-22    06:45:08 13 km al NOROESTE de COQUIMATLAN, COL: 19.24°, -103.93° 70 km
3.4 2018-02-22    06:41:16 7 km al ESTE de PINOTEPA NACIONAL, OAX: 16.33°, -97.98° 3 km
3.5 2018-02-22    06:37:40 59 km al SUROESTE de PINOTEPA NACIONAL, OAX: 15.94°, -98.42° 20 km
2.8 2018-02-22    06:30:09 9 km al ESTE de PINOTEPA NACIONAL, OAX: 16.32°, -97.97° 20 km
3.3 2018-02-22    06:25:02 7 km al SURESTE de PINOTEPA NACIONAL, OAX: 16.30°, -98.01° 4 km
3.1 2018-02-22    06:22:29 6 km al SURESTE de PINOTEPA NACIONAL, OAX: 16.31°, -98.00° 6 km
2.0 2018-02-22    06:12:58 10 km al SUROESTE de PINOTEPA NACIONAL, OAX: 16.26°, -98.10° 20 km
3.4 2018-02-22    06:00:26 31 km al ESTE de PINOTEPA NACIONAL, OAX: 16.30°, -97.77° 5 km
3.2 2018-02-22    05:57:03 33 km al SUR de SAN MARCOS, GRO: 16.50°, -99.33° 5 km
2.6 2018-02-22    05:56:44 9 km al NOROESTE de PINOTEPA NACIONAL, OAX: 16.39°, -98.12° 35 km
2.8 2018-02-22    05:53:16 19 km al NOROESTE de RIO GRANDE, OAX: 16.12°, -97.57° 37 km
2.2 2018-02-22    05:43:03 19 km al SUROESTE de PINOTEPA NACIONAL, OAX: 16.18°, -98.13° 10 km
2.3 2018-02-22    05:34:24 16 km al SUR de PINOTEPA NACIONAL, OAX: 16.20°, -98.02° 10 km
3.1 2018-02-22    05:32:09 45 km al SUR de PINOTEPA NACIONAL, OAX: 15.94°, -98.04° 10 km
2.5 2018-02-22    05:31:17 15 km al NORESTE de PINOTEPA NACIONAL, OAX: 16.46°, -97.98° 40 km
2.6 2018-02-22    05:27:31 22 km al SUROESTE de PINOTEPA NACIONAL, OAX: 16.24°, -98.22° 10 km
3.2 2018-02-22    05:18:39 24 km al SURESTE de PINOTEPA NACIONAL, OAX: 16.19°, -97.89° 14 km
2.9 2018-02-22    05:14:13 17 km al NORESTE de PINOTEPA NACIONAL, OAX: 16.45°, -97.93° 7 km
4.1 2018-02-22    05:13:37 119 km al SUROESTE de CD HIDALGO, CHIS: 14.17°, -93.13° 95 km
2.5 2018-02-22    05:11:55 25 km al NORESTE de PINOTEPA NACIONAL, OAX: 16.55°, -97.97° 10 km
2.5 2018-02-22    05:08:10 11 km al SUR de PINOTEPA NACIONAL, OAX: 16.24°, -98.04° 10 km
2.7 2018-02-22    05:00:27 17 km al ESTE de PINOTEPA NACIONAL, OAX: 16.38°, -97.90° 10 km
2.8 2018-02-22    04:55:22 20 km al NORESTE de PINOTEPA NACIONAL, OAX: 16.43°, -97.88° 10 km
2.5 2018-02-22    04:53:01 18 km al NORESTE de PINOTEPA NACIONAL, OAX: 16.46°, -97.93° 10 km
2.3 2018-02-22    04:52:58 21 km al NORESTE de PINOTEPA NACIONAL, OAX: 16.43°, -97.88° 10 km
2.8 2018-02-22    04:39:23 15 km al SURESTE de PINOTEPA NACIONAL, OAX: 16.21°, -98.01° 10 km
3.3 2018-02-22    04:30:26 14 km al SURESTE de PINOTEPA NACIONAL, OAX: 16.31°, -97.93° 10 km
3.5 2018-02-22    04:26:55 10 km al SURESTE de PINOTEPA NACIONAL, OAX: 16.27°, -97.99° 5 km
3.6 2018-02-22    04:26:44 12 km al ESTE de PINOTEPA NACIONAL, OAX: 16.36°, -97.95° 10 km
2.7 2018-02-22    04:26:07 12 km al SUR de PINOTEPA NACIONAL, OAX: 16.23°, -98.07° 10 km
3.0 2018-02-22    04:12:39 36 km al SURESTE de PINOTEPA NACIONAL, OAX: 16.05°, -97.90° 10 km
3.1 2018-02-22    04:05:31 53 km al SUR de PINOTEPA NACIONAL, OAX: 15.86°, -98.07° 16 km
3.5 2018-02-22    03:58:26 9 km al SURESTE de PINOTEPA NACIONAL, OAX: 16.28°, -98.00° 6 km
3.1 2018-02-22    03:57:06 9 km al SUROESTE de MANZANILLO, COL: 19.00°, -104.39° 35 km
3.0 2018-02-22    03:40:32 17 km al ESTE de PINOTEPA NACIONAL, OAX: 16.34°, -97.89° 6 km
3.2 2018-02-22    03:15:43 9 km al SUR de PINOTEPA NACIONAL, OAX: 16.26°, -98.06° 9 km
3.5 2018-02-22    03:13:42 82 km al SUR de PINOTEPA NACIONAL, OAX: 15.60°, -98.08° 17 km
3.0 2018-02-22    03:01:32 15 km al ESTE de PINOTEPA NACIONAL, OAX: 16.34°, -97.91° 10 km
3.0 2018-02-22    03:00:54 17 km al SUROESTE de PINOTEPA NACIONAL, OAX: 16.23°, -98.16° 16 km
3.5 2018-02-22    02:30:06 14 km al ESTE de PINOTEPA NACIONAL, OAX: 16.31°, -97.93° 9 km
3.4 2018-02-22    02:24:51 10 km al SUROESTE de PINOTEPA NACIONAL, OAX: 16.26°, -98.10° 10 km
3.0 2018-02-22    02:22:41 37 km al ESTE de PINOTEPA NACIONAL, OAX: 16.27°, -97.71° 12 km
3.2 2018-02-22    02:11:22 10 km al SUR de PINOTEPA NACIONAL, OAX: 16.25°, -98.03° 10 km
3.3 2018-02-22    02:09:45 37 km al SURESTE de PINOTEPA NACIONAL, OAX: 16.09°, -97.83° 7 km
4.1 2018-02-22    02:00:23 23 km al SUROESTE de ZIHUATANEJO, GRO: 17.48°, -101.68° 10 km
2.7 2018-02-22    01:58:12 19 km al SUROESTE de PINOTEPA NACIONAL, OAX: 16.21°, -98.16° 10 km
3.2 2018-02-22    01:56:00 7 km al SURESTE de PINOTEPA NACIONAL, OAX: 16.28°, -98.02° 10 km
3.1 2018-02-22    01:50:14 12 km al SURESTE de PINOTEPA NACIONAL, OAX: 16.24°, -98.01° 3 km
3.6 2018-02-22    01:49:54 13 km al SUROESTE de SALINA CRUZ, OAX: 16.12°, -95.31° 63 km
3.1 2018-02-22    01:36:00 25 km al NORESTE de PINOTEPA NACIONAL, OAX: 16.49°, -97.88° 9 km
2.9 2018-02-22    01:30:52 24 km al SURESTE de PINOTEPA NACIONAL, OAX: 16.28°, -97.84° 10 km
3.5 2018-02-22    01:25:27 9 km al ESTE de PINOTEPA NACIONAL, OAX: 16.34°, -97.97° 28 km
3.5 2018-02-22    00:46:48 24 km al NOROESTE de PINOTEPA NACIONAL, OAX: 16.52°, -98.17° 26 km
3.7 2018-02-22    00:41:06 25 km al OESTE de TEHUANTEPEC, OAX: 16.37°, -95.46° 61 km
3.7 2018-02-22    00:31:28 12 km al SUR de PINOTEPA NACIONAL, OAX: 16.24°, -98.07° 6 km
2.8 2018-02-22    00:09:38 12 km al SURESTE de PINOTEPA NACIONAL, OAX: 16.25°, -98.00° 10 km
2.8 2018-02-22    00:08:25 18 km al ESTE de PINOTEPA NACIONAL, OAX: 16.37°, -97.88° 10 km
3.1 2018-02-22    00:02:45 16 km al SUROESTE de PINOTEPA NACIONAL, OAX: 16.21°, -98.12° 10 km

Si deseas más información, consulta nuestro Catálogo de sismos

Sismo de magnitud menor de 4.0

Sismo de magnitud entre 4.0 y 5.9

Sismo de magnitud igual o mayor de 6.0